Theta_e
320 326 326 324 322 323 325 327 327 326 324 328 330 333 333 336 342 344 344 345 344 343 339 335 335 335 333 333 331 330 332 332 330 329 331 330 331 330 324 319 318 317 317 317
324 326 323 320 323 326 326 327 327 325 324 329 332 333 336 337 340 342 342 342 343 342 340 337 335 335 334 333 333 331 332 331 330 332 331 332 330 324 320 318 317 316 317 317
325 324 321 325 326 328 327 329 328 328 326 324 328 333 331 331 338 340 340 340 340 340 341 340 337 335 334 334 333 332 330 331 330 330 330 328 324 321 321 320 320 318 317 317
324 322 324 326 326 326 330 325 326 326 328 328 323 329 333 330 337 338 340 340 340 339 338 337 336 336 334 334 332 330 331 331 330 331 329 324 323 322 321 320 319 318 316 314
325 325 326 327 326 325 328 325 325 325 327 327 327 330 332 330 335 336 337 338 338 338 338 337 335 334 334 333 332 332 331 331 330 328 326 323 323 322 320 318 317 317 315 315
325 323 325 326 323 324 323 324 324 324 326 329 327 328 331 334 334 333 332 332 335 337 337 336 335 334 334 334 333 334 334 333 330 327 323 321 319 317 318 318 317 316 315 313
327 326 325 325 328 327 327 330 327 326 329 328 325 329 330 330 326 328 329 330 331 332 336 337 337 336 335 334 333 332 332 331 327 322 319 316 315 315 316 317 316 315 312 310
329 329 328 325 327 329 327 329 329 329 329 327 327 330 329 325 324 325 325 328 331 334 335 337 336 335 333 332 331 329 327 324 320 317 315 314 315 317 317 316 315 312 310 308
331 331 327 325 325 327 329 331 325 330 326 329 327 328 327 325 326 326 326 329 333 335 336 335 335 333 330 326 327 327 324 320 316 314 314 315 314 315 316 315 313 310 309 309
333 334 328 329 327 325 329 324 332 330 332 331 330 330 328 329 329 328 327 329 332 332 332 332 332 331 327 322 322 320 318 317 314 314 315 315 314 315 314 313 311 310 309 310
330 336 331 329 330 331 329 330 327 329 330 332 331 328 329 330 330 329 328 327 327 328 327 328 329 326 323 320 318 318 317 316 316 315 315 315 315 314 313 311 310 309 310 311
328 334 333 330 327 326 326 327 329 332 332 329 329 329 325 326 327 326 326 326 326 323 322 322 324 325 322 321 319 317 316 315 315 315 315 315 313 312 310 310 309 309 311 310
331 333 335 332 330 329 330 325 324 327 327 333 329 326 325 326 327 325 325 326 323 322 321 322 321 322 322 320 318 316 316 315 315 315 314 313 311 310 309 309 309 310 309 309
333 331 335 332 330 329 329 328 325 329 332 327 327 328 328 329 328 327 325 323 323 323 322 322 322 320 320 319 317 316 316 315 315 314 312 311 311 308 308 309 310 310 308 308
336 337 332 327 328 328 327 327 327 328 329 331 329 327 328 328 326 326 323 322 323 322 321 322 323 322 320 318 317 316 315 315 313 313 312 311 308 308 308 309 310 309 308 307
328 336 331 331 329 330 329 328 328 329 327 326 327 329 326 325 323 324 324 324 324 323 321 322 322 320 319 318 317 316 314 312 312 312 310 308 308 308 309 310 309 308 307 307
333 334 332 333 330 330 332 329 329 329 328 327 329 328 328 327 325 326 326 324 324 323 323 322 322 321 320 318 314 316 314 313 311 310 308 308 307 308 310 309 307 306 306 306
333 334 332 334 332 334 329 327 329 330 332 330 330 329 326 327 326 326 324 323 323 322 323 324 323 322 321 316 315 314 313 311 310 309 308 307 308 309 309 307 306 305 306 306
331 335 336 338 335 332 332 331 333 333 332 331 331 328 327 326 327 328 325 325 324 324 323 322 322 320 317 315 314 313 312 310 309 308 307 307 308 309 307 304 304 304 305 306
331 333 335 335 338 336 333 329 328 328 334 328 331 330 329 328 330 330 325 323 323 323 323 322 322 319 316 314 313 313 311 309 308 307 307 308 309 305 305 305 303 305 305 306
335 334 337 335 337 334 331 328 326 335 336 327 329 331 329 330 328 325 323 323 323 323 323 322 322 318 315 313 312 310 310 309 307 307 308 309 305 305 305 304 305 306 306 307
331 334 337 334 336 330 328 327 332 333 327 329 328 330 329 327 323 323 323 323 321 321 321 322 321 317 313 311 311 311 309 307 307 307 309 307 306 305 305 305 305 306 307 306
329 330 333 336 331 330 327 329 327 326 330 329 327 326 323 323 323 323 322 322 321 319 319 321 319 315 312 310 311 311 308 307 307 309 309 307 307 306 305 305 305 307 306 306
326 327 332 333 331 329 329 327 327 327 327 326 325 323 322 324 323 322 322 322 320 319 319 320 319 315 312 310 309 308 307 307 309 310 309 308 306 307 306 305 305 306 306 308
325 329 331 330 329 329 329 329 328 327 326 326 323 323 323 323 323 321 323 322 321 320 319 320 317 314 312 310 309 308 307 308 310 310 308 305 305 304 306 304 305 305 306 306
323 328 328 325 331 332 331 330 327 325 323 323 323 322 322 322 322 321 323 322 321 319 320 319 315 313 311 310 309 307 308 309 310 310 307 305 305 305 306 307 307 305 306 306
Wind_Speed
4 5 5 3 1 3 5 5 5 3 5 4 3 4 9 5 0 2 6 7 10 9 7 7 6 3 3 6 10 12 13 14 12 10 9 10 14 11 8 6 7 9 9 11
2 4 2 5 6 5 5 3 2 1 5 2 2 5 8 6 2 2 4 7 9 8 8 11 10 5 3 5 7 11 14 16 14 12 14 11 11 7 6 8 9 10 12 14
1 2 4 5 6 6 3 2 1 3 3 7 1 2 5 4 3 2 3 6 7 9 11 11 13 12 7 5 5 8 10 14 13 13 12 10 10 7 7 8 8 10 15 15
2 3 7 7 4 1 1 2 3 2 2 2 4 1 1 6 4 3 1 3 6 9 10 10 9 9 8 7 6 8 12 13 12 11 9 9 7 10 9 11 12 15 15 17
2 5 5 6 2 1 3 6 4 3 4 2 6 3 2 3 3 3 2 4 6 10 8 8 6 6 7 8 8 9 10 9 9 9 10 9 9 9 11 12 14 15 15 15
3 1 2 3 2 2 6 2 4 3 0 2 5 3 1 3 3 3 4 6 9 9 5 6 6 6 7 8 8 7 6 7 9 10 9 11 11 13 13 14 15 16 18 19
3 3 1 1 3 4 4 3 3 1 3 3 3 3 3 5 4 6 6 8 10 3 4 5 5 6 6 6 5 4 6 6 8 8 9 10 12 15 14 13 15 16 19 21
3 3 1 2 1 2 4 3 4 4 4 6 2 2 2 3 5 6 8 11 7 4 5 5 6 5 4 3 2 3 4 4 5 6 8 12 14 10 12 13 14 17 19 18
4 3 0 4 3 2 3 2 2 5 1 3 2 3 6 5 8 8 11 11 6 6 5 5 4 4 3 3 4 5 4 4 5 8 11 12 13 14 14 14 15 17 18 19
5 3 2 3 1 11 1 7 0 2 3 6 2 4 5 6 11 13 14 9 5 7 5 4 3 3 3 3 4 4 5 5 6 9 11 12 13 15 14 15 16 17 19 18
4 1 2 2 3 1 3 2 5 2 2 4 5 6 3 9 8 10 12 6 7 5 5 4 3 2 5 5 6 7 5 4 6 9 11 12 12 13 14 17 17 18 19 18
2 3 3 2 1 1 2 3 2 0 1 0 2 7 2 6 9 10 10 7 4 2 2 2 3 5 7 8 9 6 6 7 7 8 9 11 12 15 17 16 16 17 18 19
7 2 3 3 3 2 2 3 4 4 1 4 4 5 2 7 7 5 6 6 2 3 4 4 4 7 10 11 8 8 7 6 6 7 9 12 15 17 18 16 16 16 19 17
5 3 2 3 2 3 4 2 2 1 2 3 8 12 13 10 7 3 3 3 4 5 4 4 6 10 12 12 10 6 5 5 6 7 10 14 16 18 16 16 17 17 18 18
2 3 1 2 3 2 2 2 4 4 4 5 9 6 10 9 7 6 3 2 4 4 4 8 9 11 13 12 8 7 4 5 6 7 11 15 17 15 15 16 17 19 17 16
2 3 2 3 1 1 2 3 3 3 2 7 7 8 5 5 4 3 4 5 6 6 7 10 11 13 16 13 12 8 4 3 4 8 12 16 15 14 14 16 17 18 17 15
2 5 3 2 1 2 4 4 2 3 4 3 6 4 8 5 5 6 8 6 8 8 10 12 13 17 17 16 14 3 2 2 5 9 14 14 13 14 16 16 17 18 15 14
5 4 1 2 2 4 2 3 4 7 10 7 6 4 2 2 4 9 10 7 8 8 10 12 15 16 15 10 2 3 4 4 6 11 13 12 14 16 16 17 19 17 12 11
2 4 3 2 3 3 4 4 5 6 7 3 5 1 0 2 2 7 10 8 7 7 10 13 12 12 10 4 2 4 5 5 8 11 11 13 14 15 16 18 15 12 12 10
6 6 0 3 3 7 4 2 4 3 6 2 2 2 1 2 4 4 9 10 11 12 12 14 16 12 7 3 5 6 4 7 9 9 11 12 13 14 14 14 13 14 11 8
2 2 3 3 4 5 6 3 3 4 3 3 1 2 1 2 3 3 5 8 10 10 12 14 15 10 4 4 5 6 5 8 7 8 10 12 12 14 13 13 13 14 11 10
2 2 2 2 3 8 1 4 4 1 1 2 2 2 5 5 4 3 5 7 10 13 17 18 16 9 3 5 5 5 6 6 6 8 9 9 12 12 11 13 12 13 11 12
3 3 1 6 2 0 2 2 4 2 1 2 3 3 5 4 4 3 5 8 12 17 20 18 14 4 4 5 4 4 5 6 7 8 9 7 10 11 11 15 13 16 14 11
4 2 2 2 3 6 4 5 6 2 1 4 4 4 4 4 2 3 5 9 13 17 19 18 14 3 5 5 4 4 5 5 7 8 8 7 8 9 11 11 14 12 12 10
1 7 5 4 5 5 5 7 4 4 5 5 4 4 4 3 3 4 6 9 13 18 21 18 12 2 6 6 3 4 5 6 7 7 7 7 6 7 7 12 14 11 11 9
5 6 5 7 5 3 1 5 7 7 6 5 5 4 5 5 4 6 7 10 13 18 19 16 6 5 8 5 3 4 5 6 7 6 6 6 5 5 5 6 8 12 12 11
Wind_Direction
17 74 39 39 58 107 120 93 75 80 25 105 55 359 347 338 108 199 202 214 228 222 199 185 188 178 175 203 213 217 218 218 219 216 231 250 262 250 265 272 295 318 325 330
53 96 18 125 139 108 88 77 44 179 22 119 161 51 14 10 318 272 235 232 238 234 232 226 224 221 195 198 215 219 219 224 226 233 247 255 266 272 290 313 328 325 327 324
152 79 143 140 126 101 71 98 232 311 68 74 296 129 15 12 354 280 240 263 252 245 250 246 236 239 244 239 238 234 235 235 240 253 261 278 299 305 325 331 327 322 321 316
49 353 157 130 88 359 28 341 287 311 241 341 339 257 24 351 17 17 8 247 264 264 254 251 260 262 263 267 271 267 248 247 250 248 272 303 313 315 315 318 318 323 316 315
53 105 111 82 35 258 54 60 56 58 110 170 25 272 77 340 162 159 203 240 245 251 262 285 283 271 269 272 267 274 265 249 252 284 304 309 310 311 311 316 318 316 315 316
94 14 38 85 95 68 126 100 69 85 118 39 358 304 140 189 205 196 229 245 247 253 268 270 275 267 272 274 270 268 265 262 287 301 302 307 311 313 320 321 318 317 317 317
69 34 73 147 96 80 62 25 360 47 26 358 360 269 352 242 261 247 246 239 245 291 264 260 262 255 266 285 286 264 264 276 284 295 303 307 314 323 320 315 313 315 316 317
137 160 278 33 9 107 56 33 31 356 334 336 312 345 28 272 270 257 262 258 278 274 263 266 268 280 293 305 270 252 247 257 284 293 303 317 323 313 307 308 310 311 314 314
147 181 29 35 102 318 135 75 70 109 110 275 352 246 256 246 249 248 247 243 252 269 266 264 263 258 241 290 281 248 239 264 292 306 312 316 315 310 306 307 305 307 309 306
175 135 40 130 125 54 298 130 298 52 315 324 295 278 301 270 243 235 242 242 250 255 252 263 272 264 245 239 234 233 244 249 282 305 312 314 313 308 304 300 301 305 307 307
137 127 145 201 28 71 145 144 66 93 340 305 304 306 253 280 301 285 267 245 245 258 255 265 271 247 237 239 241 245 254 290 304 307 310 311 312 309 304 303 305 308 310 310
93 113 131 94 92 269 76 103 120 31 276 170 314 283 14 302 297 283 279 234 229 260 309 289 263 242 248 247 247 254 269 277 302 318 319 310 311 312 310 307 307 314 315 313
178 57 113 131 158 130 100 102 98 97 99 219 287 287 337 310 301 281 240 230 201 253 276 260 240 243 248 250 252 252 263 291 321 319 311 311 316 318 314 310 313 314 319 313
94 100 172 213 111 111 156 135 134 201 240 303 263 298 314 328 302 317 336 339 285 277 273 261 250 253 259 261 257 270 289 324 324 316 315 316 320 317 315 316 318 314 318 318
63 104 112 93 92 154 162 177 181 237 279 263 320 285 298 349 337 338 320 259 259 279 264 250 257 268 276 287 293 274 290 305 317 321 318 317 317 320 321 323 320 319 320 327
11 127 137 147 105 9 248 263 256 243 246 260 277 285 6 326 313 312 285 288 299 282 268 263 274 307 318 307 281 272 256 293 326 328 319 317 324 326 327 326 327 332 335 331
74 138 156 178 4 360 275 229 210 277 245 259 274 337 324 330 18 14 349 323 308 331 334 332 323 311 307 298 292 268 144 64 349 323 323 327 330 329 329 329 334 335 333 335
129 112 87 133 160 248 2 251 273 264 280 249 263 282 320 359 11 40 22 355 349 343 341 339 338 332 326 331 7 106 100 56 347 329 334 336 335 333 333 335 334 327 322 334
56 129 108 200 214 326 244 213 201 203 283 227 243 196 210 323 281 71 26 21 17 353 346 340 336 326 342 7 135 120 74 19 344 344 346 344 339 337 343 337 338 341 336 346
72 73 178 160 228 270 285 149 151 159 281 175 222 231 322 342 312 40 5 9 5 7 3 345 332 338 354 39 105 90 48 360 355 357 349 350 348 355 350 346 343 349 353 357
109 70 238 176 249 276 252 165 152 229 299 159 188 357 65 12 41 14 6 21 11 357 342 335 339 348 17 122 124 87 29 13 8 358 357 360 8 6 358 357 8 13 24 77
171 167 210 152 265 284 82 131 219 4 169 153 123 99 101 105 94 48 24 7 358 355 350 347 349 359 55 123 107 66 35 25 16 8 10 18 18 14 13 23 23 33 67 64
200 221 247 204 257 14 254 270 302 239 242 171 139 118 104 117 79 42 7 359 1 0 351 351 352 359 119 128 100 50 40 33 22 17 22 39 30 31 30 33 44 69 57 65
216 148 214 210 206 256 259 245 248 224 294 113 111 118 107 111 99 32 357 6 2 357 349 349 346 353 133 135 94 55 43 33 24 29 45 44 42 38 31 43 48 60 60 60
71 163 188 244 263 267 242 232 218 142 125 133 134 115 123 121 56 3 357 359 355 347 349 348 350 54 135 134 97 50 48 32 35 53 54 52 40 40 25 49 48 56 61 70
194 180 204 254 202 220 172 169 153 149 165 153 134 126 81 61 26 351 342 357 351 344 347 346 6 123 135 129 99 58 55 42 44 65 52 54 45 39 21 55 62 54 70 76